| time (UTC) | temp C | wind direction | speed KPH | gust KPH | rain 1hr cm | rain 24hr cm | rain mn cm | humidity % | barometer mb |
| 20260506221558 | 10 | 0 | 3.2 | 22.5 | 0.03 | 0.99 | 0.99 | 86 | 1008.8 |
| 20260506220056 | 10 | 360 | 8.0 | 24.1 | 0.03 | 0.99 | 0.99 | 86 | 1008.0 |
| 20260506214552 | 11 | 11 | 6.4 | 25.7 | 0.03 | 0.99 | 0.99 | 86 | 1007.8 |
| 20260506213048 | 11 | 32 | 9.7 | 29.0 | 0.00 | 0.97 | 0.97 | 85 | 1007.3 |
| 20260506211554 | 12 | 294 | 6.4 | 19.3 | 0.00 | 0.97 | 0.97 | 84 | 1007.0 |
| 20260506210045 | 13 | 18 | 6.4 | 19.3 | 0.00 | 0.97 | 0.97 | 83 | 1006.7 |
| 20260506204551 | 16 | 352 | 3.2 | 14.5 | 0.00 | 0.99 | 0.97 | 86 | 1006.3 |
| 20260506203043 | 17 | 0 | 0.0 | 3.2 | 0.00 | 0.99 | 0.97 | 88 | 1005.9 |
| 20260506201543 | 16 | 0 | 0.0 | 3.2 | 0.00 | 0.99 | 0.97 | 89 | 1005.8 |
| 20260506200050 | 16 | 0 | 0.0 | 8.0 | 0.00 | 0.99 | 0.97 | 89 | 1006.1 |
| 20260506194549 | 16 | 0 | 0.0 | 4.8 | 0.00 | 0.99 | 0.97 | 89 | 1006.2 |
| 20260506193044 | 16 | 0 | 1.6 | 4.8 | 0.00 | 0.99 | 0.97 | 89 | 1006.4 |
| 20260506191543 | 16 | 0 | 0.0 | 3.2 | 0.00 | 0.99 | 0.97 | 90 | 1006.4 |
| 20260506190043 | 16 | 229 | 0.0 | 4.8 | 0.03 | 0.99 | 0.97 | 90 | 1006.4 |
| 20260506184543 | 16 | 277 | 0.0 | 3.2 | 0.03 | 0.99 | 0.97 | 90 | 1006.6 |
| 20260506183048 | 16 | 0 | 1.6 | 9.7 | 0.03 | 0.99 | 0.97 | 90 | 1006.7 |
| 20260506181545 | 16 | 286 | 0.0 | 3.2 | 0.05 | 0.99 | 0.97 | 90 | 1006.7 |
| 20260506180046 | 15 | 0 | 0.0 | 4.8 | 0.10 | 0.97 | 0.94 | 90 | 1006.8 |
| 20260506174546 | 15 | 228 | 0.0 | 3.2 | 0.10 | 0.97 | 0.94 | 90 | 1006.7 |
| 20260506173049 | 15 | 0 | 0.0 | 4.8 | 0.15 | 0.97 | 0.94 | 90 | 1006.9 |
| 20260506171553 | 15 | 0 | 0.0 | 3.2 | 0.15 | 0.94 | 0.91 | 89 | 1006.9 |
| 20260506170059 | 15 | 0 | 0.0 | 3.2 | 0.10 | 0.86 | 0.84 | 89 | 1006.9 |
| 20260506164554 | 15 | 16 | 0.0 | 3.2 | 0.15 | 0.86 | 0.84 | 89 | 1006.9 |
| 20260506163045 | 15 | 0 | 0.0 | 4.8 | 0.20 | 0.81 | 0.79 | 89 | 1007.0 |
| 20260506161553 | 15 | 315 | 0.0 | 3.2 | 0.28 | 0.79 | 0.76 | 89 | 1006.8 |
| 20260506160049 | 15 | 0 | 0.0 | 3.2 | 0.30 | 0.76 | 0.74 | 89 | 1006.9 |
| 20260506154551 | 15 | 0 | 0.0 | 3.2 | 0.30 | 0.71 | 0.69 | 89 | 1007.1 |
| 20260506153046 | 15 | 342 | 0.0 | 4.8 | 0.23 | 0.61 | 0.58 | 88 | 1007.2 |
| 20260506151545 | 15 | 343 | 0.0 | 3.2 | 0.15 | 0.51 | 0.48 | 88 | 1007.3 |
| 20260506150045 | 16 | 0 | 0.0 | 4.8 | 0.18 | 0.46 | 0.43 | 88 | 1007.2 |
| 20260506144546 | 15 | 5 | 0.0 | 3.2 | 0.15 | 0.41 | 0.38 | 88 | 1007.0 |
| 20260506143051 | 16 | 0 | 0.0 | 3.2 | 0.20 | 0.38 | 0.36 | 88 | 1007.2 |
| 20260506141606 | 16 | 0 | 0.0 | 3.2 | 0.23 | 0.36 | 0.33 | 87 | 1007.1 |
| 20260506140048 | 15 | 0 | 0.0 | 3.2 | 0.20 | 0.28 | 0.25 | 86 | 1007.3 |
| 20260506134546 | 16 | 0 | 0.0 | 0.0 | 0.18 | 0.23 | 0.20 | 85 | 1007.6 |
| 20260506133059 | 16 | 0 | 0.0 | 3.2 | 0.15 | 0.18 | 0.15 | 84 | 1007.8 |
| 20260506131555 | 16 | 0 | 0.0 | 3.2 | 0.10 | 0.13 | 0.10 | 82 | 1007.9 |
| 20260506130045 | 16 | 0 | 0.0 | 4.8 | 0.05 | 0.08 | 0.05 | 79 | 1008.1 |
| 20260506124553 | 17 | 159 | 0.0 | 11.3 | 0.03 | 0.05 | 0.03 | 77 | 1008.0 |
| 20260506123048 | 17 | 253 | 4.8 | 11.3 | 0.00 | 0.03 | 0.00 | 75 | 1007.6 |
| 20260506121555 | 16 | 0 | 1.6 | 4.8 | 0.00 | 0.03 | 0.00 | 78 | 1007.3 |
| 20260506120109 | 16 | 0 | 0.0 | 3.2 | 0.00 | 0.03 | 0.00 | 80 | 1007.4 |
| 20260506114547 | 15 | 0 | 0.0 | 3.2 | 0.00 | 0.03 | 0.00 | 80 | 1007.4 |
| 20260506113044 | 15 | 334 | 0.0 | 3.2 | 0.00 | 0.03 | 0.00 | 80 | 1007.5 |
| 20260506111541 | 15 | 0 | 0.0 | 11.3 | 0.00 | 0.03 | 0.00 | 81 | 1007.3 |
| 20260506110051 | 14 | 320 | 0.0 | 0.0 | 0.00 | 0.03 | 0.00 | 82 | 1007.2 |
| 20260506104552 | -17 | 0.0 | 0.0 | 0.00 | 0.03 | 0.00 | 1007.0 | ||
| 20260506103054 | -17 | 0.0 | 0.0 | 0.00 | 0.03 | 0.00 | 1006.7 | ||
| 20260506101553 | -17 | 0.0 | 0.0 | 0.00 | 0.03 | 0.00 | 1006.7 | ||
| 20260506100054 | -17 | 0.0 | 0.0 | 0.00 | 0.03 | 0.00 | 1006.6 | ||
| 20260506094551 | -17 | 0.0 | 0.0 | 0.00 | 0.03 | 0.00 | 1006.8 | ||
| 20260506093051 | -17 | 0.0 | 0.0 | 0.00 | 0.03 | 0.00 | 1006.8 | ||
| 20260506091546 | -17 | 0.0 | 0.0 | 0.00 | 0.03 | 0.00 | 1006.8 | ||
| 20260506090051 | -17 | 0.0 | 0.0 | 0.00 | 0.03 | 0.00 | 1006.9 | ||
| 20260506084552 | -17 | 0.0 | 0.0 | 0.00 | 0.03 | 0.00 | 1007.0 | ||
| 20260506083050 | -17 | 0.0 | 0.0 | 0.00 | 0.03 | 0.00 | 1007.3 | ||
| 20260506081552 | -17 | 0.0 | 0.0 | 0.00 | 0.03 | 0.00 | 1007.0 | ||
| 20260506073059 | -17 | 0.0 | 0.0 | 0.00 | 0.03 | 0.00 | 1007.1 | ||
| 20260506071550 | -17 | 0 | 0.0 | 0.0 | 0.00 | 0.03 | 0.00 | 1007.3 | |
| 20260506070116 | 12 | 0 | 0.0 | 0.0 | 0.00 | 0.03 | 0.00 | 85 | 1007.4 |
| 20260506061545 | 12 | 0 | 0.0 | 0.0 | 0.00 | 0.03 | 0.00 | 85 | 1007.7 |
| 20260506044556 | 12 | 0 | 0.0 | 0.0 | 0.00 | 0.03 | 0.00 | 83 | 1008.1 |
| 20260506043046 | 13 | 0 | 0.0 | 0.0 | 0.00 | 0.03 | 0.00 | 83 | 1008.2 |
| 20260506041551 | 13 | 0 | 0.0 | 0.0 | 0.00 | 0.03 | 0.00 | 82 | 1008.3 |
| 20260506040058 | 13 | 0 | 0.0 | 0.0 | 0.00 | 0.03 | 0.00 | 81 | 1008.3 |
| 20260506034549 | 13 | 0 | 0.0 | 0.0 | 0.00 | 0.03 | 0.03 | 81 | 1008.5 |
| 20260506033046 | 14 | 0 | 0.0 | 0.0 | 0.00 | 0.03 | 0.03 | 80 | 1008.3 |
| 20260506031556 | 14 | 0 | 0.0 | 0.0 | 0.00 | 0.03 | 0.03 | 79 | 1008.3 |
| 20260506030110 | 15 | 0 | 0.0 | 0.0 | 0.00 | 0.03 | 0.03 | 78 | 1008.1 |
| 20260506024544 | 15 | 0 | 0.0 | 0.0 | 0.00 | 0.03 | 0.03 | 77 | 1008.2 |
| 20260506023047 | 16 | 0 | 0.0 | 0.0 | 0.00 | 0.03 | 0.03 | 76 | 1008.1 |
| 20260506021548 | 16 | 0 | 0.0 | 0.0 | 0.00 | 0.03 | 0.03 | 75 | 1008.2 |
| 20260506020052 | 17 | 0 | 0.0 | 0.0 | 0.00 | 0.03 | 0.03 | 72 | 1008.2 |
| 20260506014559 | 17 | 0 | 0.0 | 0.0 | 0.00 | 0.03 | 0.03 | 68 | 1008.1 |
| 20260506013053 | 17 | 0 | 0.0 | 0.0 | 0.00 | 0.03 | 0.03 | 67 | 1008.0 |
| 20260506011557 | 18 | 0 | 0.0 | 0.0 | 0.00 | 0.03 | 0.03 | 66 | 1007.7 |
| 20260506010054 | 18 | 0 | 0.0 | 0.0 | 0.00 | 0.03 | 0.03 | 63 | 1007.5 |
| 20260506004623 | 20 | 284 | 0.0 | 1.6 | 0.00 | 0.03 | 0.03 | 62 | 1007.3 |
| 20260506003056 | 20 | 0 | 0.0 | 0.0 | 0.00 | 0.03 | 0.03 | 59 | 1007.1 |
| 20260506001556 | 21 | 0 | 0.0 | 0.0 | 0.00 | 0.03 | 0.03 | 56 | 1007.0 |
| 20260506000054 | 22 | 0 | 0.0 | 0.0 | 0.00 | 0.03 | 0.03 | 52 | 1007.0 |
| 20260505234610 | 22 | 0 | 0.0 | 0.0 | 0.00 | 0.03 | 0.03 | 48 | 1006.8 |
| 20260505233050 | 23 | 0 | 0.0 | 0.0 | 0.00 | 0.03 | 0.03 | 43 | 1006.7 |
| 20260505231551 | 24 | 0 | 0.0 | 3.2 | 0.00 | 0.03 | 0.03 | 41 | 1006.5 |
| 20260505230054 | 24 | 0 | 0.0 | 11.3 | 0.00 | 0.03 | 0.03 | 39 | 1006.5 |
| 20260505224551 | 24 | 251 | 1.6 | 11.3 | 0.00 | 0.03 | 0.03 | 39 | 1006.5 |
| 20260505223058 | 24 | 213 | 0.0 | 4.8 | 0.00 | 0.03 | 0.03 | 40 | 1006.2 |